#timestamp,LO_Frequency,Hit,StdDev 
1567065615.5,286046991.9,Y
1567065635.3,286047001.0,P
1567065655.1,286046997.6,N
1567065675.9,286046992.0,N
1567065695.7,286046991.1,N
1567065715.6,286046988.1,Y
1567065735.4,286046989.1,P
1567065755.2,286046983.8,P
1567065775.1,286046983.7,P
1567065776.0,286046983.7,Y
1567065795.8,286046993.8,P
1567065815.7,286046994.3,N
1567065835.5,286046992.6,N
1567065855.3,286046991.1,Y
1567065875.2,286046997.6,P
1567065895.0,286046996.1,N
1567065895.9,286046996.1,N
1567065915.7,286046995.9,N
1567065935.6,286046994.1,Y
1567065955.4,286046997.0,P
1567065975.3,286046996.1,P
1567065995.1,286046995.1,P
1567066015.8,286046994.0,Y
1567066035.7,286046995.1,P
1567066055.5,286046993.9,P
1567066075.4,286046990.6,P
1567066095.2,286046989.6,Y
1567066115.0,286046991.9,P
1567066115.9,286046991.9,P
1567066135.8,286046992.6,P
1567066155.6,286046990.1,Y
1567066175.4,286047001.2,P
1567066195.3,286046996.9,N
1567066215.1,286046996.4,N
1567066235.9,286046987.3,Y
1567066255.7,286046991.5,P
1567066275.5,286046991.3,P
1567066295.4,286046987.4,P
1567066315.2,286046988.3,Y
1567066335.1,286046994.6,P
1567066336.0,286046994.6,P
1567066355.8,286046994.6,P
1567066375.6,286046990.3,Y
1567066395.5,286046996.7,P
1567066415.3,286046997.2,N
1567066435.1,286046997.9,N
1567066455.9,286046996.1,N
1567066475.7,286046994.3,Y
1567066495.6,286046994.0,P
1567066515.4,286046992.0,P
1567066535.2,286046990.2,P
1567066555.1,286046989.3,Y
1567066556.0,286046989.3,P
1567066575.8,286046993.5,P
1567066595.7,286046992.0,P
1567066615.5,286046990.2,Y
1567066635.3,286046998.7,P
1567066655.2,286046994.9,N
1567066675.0,286046996.1,N
1567066675.9,286046996.1,N
1567066695.8,286046992.3,Y
1567066715.6,286046995.1,P
1567066735.4,286046994.2,P
1567066755.3,286046993.9,P
1567066775.1,286046994.8,Y
1567066795.8,286046997.3,P
1567066815.7,286046999.6,N
1567066835.5,286046996.7,N
1567066855.4,286046995.9,N
1567066875.2,286046995.3,N
1567066895.0,286046997.7,N
1567066895.9,286046997.7,N
1567066915.8,286046996.4,N
1567066935.6,286046994.7,Y
1567066955.5,286046997.3,P
1567066975.3,286046997.7,P
1567066995.1,286046997.6,P
1567067015.9,286046995.0,Y
1567067035.7,286046999.4,P
1567067055.5,286046999.2,N
1567067075.4,286046999.0,N
1567067095.2,286046999.4,N
1567067115.0,286046999.4,N
1567067116.0,286046999.4,N
1567067135.8,286046999.0,N
1567067155.6,286046997.2,Y
1567067175.5,286046994.9,P
1567067195.3,286046996.2,N
1567067215.1,286046994.4,P
1567067235.9,286046991.7,Y
1567067255.7,286046997.9,P
1567067275.6,286046997.9,N
1567067295.4,286046997.4,P
1567067315.2,286046996.9,Y
1567067335.1,286046998.5,P
1567067336.0,286046998.5,N
1567067355.8,286046998.9,N
1567067375.7,286046997.5,Y
1567067395.5,286046997.3,P
1567067415.3,286046993.3,P
1567067435.2,286046994.1,N
1567067455.9,286046994.3,N
1567067475.7,286046992.4,Y
1567067495.6,286046996.2,P
1567067515.4,286046995.9,P
1567067535.3,286046995.1,P
1567067555.1,286046993.8,Y
1567067556.0,286046993.8,P
1567067575.8,286046996.6,P
1567067595.7,286046996.5,P
1567067615.5,286046999.2,N
1567067635.3,286046997.2,N
1567067655.2,286046999.1,N
1567067675.0,286046997.2,N
1567067675.9,286046997.2,N
1567067695.8,286046997.6,N
1567067715.6,286046995.6,N
1567067735.4,286046993.7,Y
1567067755.3,286046993.7,P
1567067775.1,286046992.0,P
1567067795.9,286046992.6,P
1567067815.7,286046992.7,Y
1567067835.5,286046998.6,P
1567067855.4,286046998.7,N
1567067875.2,286047001.0,N
1567067895.0,286046998.9,N
1567067896.0,286046998.9,N
1567067915.8,286046997.3,N
1567067935.6,286046996.3,N
1567067955.5,286046993.0,Y
1567067975.3,286046993.8,P
1567067995.1,286046993.8,P
1567068015.9,286046993.6,P
1567068035.7,286046992.2,Y
1567068055.6,286046999.5,P
1567068075.4,286046994.9,N
1567068095.2,286046993.4,P
1567068115.1,286046994.8,N
1567068116.0,286046994.8,N
1567068135.8,286046991.9,Y
1567068155.7,286046997.2,P
1567068175.5,286046994.9,P
1567068195.3,286046993.9,P
1567068215.2,286046994.6,Y
1567068235.0,286046995.4,P
1567068235.9,286046995.4,P
1567068255.7,286046994.1,P
1567068275.6,286046994.7,Y
1567068295.4,286046995.1,P
1567068315.3,286046994.0,P
1567068335.1,286046991.8,P
1567068336.0,286046991.8,Y
1567068355.8,286046998.9,P
1567068375.7,286046998.1,N
1567068395.5,286046999.4,N
1567068415.4,286046997.6,N
1567068435.2,286046994.5,N
1567068455.0,286046994.1,N
1567068455.9,286046994.1,N
1567068475.8,286046992.4,Y
1567068495.6,286046993.3,P
1567068515.4,286046994.0,P
1567068535.3,286046992.5,P
1567068555.1,286046990.6,Y
1567068575.9,286046995.0,P
1567068595.7,286046997.8,P
1567068615.5,286046997.4,N
1567068635.4,286046997.0,N
1567068655.2,286046997.7,N
1567068675.0,286046996.2,N
1567068676.0,286046996.2,N
1567068695.8,286046996.2,Y
1567068715.6,286046997.6,P
1567068735.5,286046995.3,P
1567068755.3,286046995.3,P
1567068775.1,286046994.2,Y
1567068795.9,286046995.2,P
1567068815.7,286046993.3,P
1567068835.6,286046995.9,P
1567068855.4,286046993.5,Y
1567068875.2,286046998.7,P
1567068895.1,286046996.9,N
1567068896.0,286046996.9,N
1567068915.8,286046996.7,N
1567068935.7,286046997.5,N
1567068955.5,286046998.0,N
1567068975.3,286046997.6,N
1567068995.2,286046996.0,Y
1567069015.9,286046995.4,P
1567069035.7,286046993.7,P
1567069055.6,286046994.8,P
1567069075.4,286046991.3,Y
1567069095.3,286046993.8,P
1567069115.1,286046991.9,P
1567069116.0,286046991.9,P
1567069135.8,286046993.2,Y
1567069155.7,286046997.4,P
1567069175.5,286046996.5,N
1567069195.3,286046997.2,N
